Location: Bambrugge
(50.9212°N, 3.9299°E)
Time: 22:05:36
(UTC+00:00)

SL-16 R/B - Pass Details

Date: 10 August 2024
Orbit: 842 x 845 km, 71.0° (Epoch: 10 September)

Event Time Altitude Azimuth Distance (km) Brightness Sun altitude
Exits shadow 23:00:44 29° 106° (ESE) 1,515 3.2 -23.0°
Maximum altitude 23:00:48 29° 104° (ESE) 1,515 3.3 -23.0°
Drops below altitude 10° 23:05:35 10° 47° (NE) 2,474 5.0 -23.2°
Sets 23:08:19 0° 37° (NE) 3,415 6.0 -23.3°
